Regional Weather Roundup
Issued by NWS

Home | Current Version | Previous Version | Graphics & Text | Print | Product List | Glossary On
Versions: 1 2 3 4 5 6 7 8 9 10 11 12 13 14 15 16 17 18 19 20 21 22 23 24 25 26 27 28 29 30 31 32 33 34 35 36 37 38 39 40 41 42 43 44 45 46 47 48 49 50
441
ASUS44 KJAN 011210
RWRMS

MISSISSIPPI HOURLY WEATHER ROUNDUP
NATIONAL WEATHER SERVICE JACKSON MS
600 AM CST SUN FEB 01 2015

NOTE: "FAIR: INDICATES FEW OR NO CLOUDS BELOW 12,000 FEET WITH NO
SIGNIFICANT WEATHER AND/OR OBSTRUCTIONS TO VISIBILITY.

MSZ001>002-007>008-010>013-018>021-025>028-034>036-011300-
NORTHWEST MISSISSIPPI

CITY           SKY/WX    TMP DP  RH WIND       PRES   REMARKS
CLARKSDALE     MOCLDY    50  50 100 SE14      29.92F
CLEVELAND      DRIZZLE   51  51  99 S13       29.93R
GREENWOOD      LGT RAIN  52  49  89 S18G26    29.95F
6HR MIN TEMP:  50; 6HR MAX TEMP:  53; 6HR PCP:  0.12;

GREENVILLE     LGT RAIN  52  49  89 S17       29.93S
6HR MIN TEMP:  49; 6HR MAX TEMP:  52; 6HR PCP:  0.01;

GRENADA        DRIZZLE   50  46  87 S8        29.98F
OLIVE BRANCH   MOCLDY    45  45 100 S14G21    29.93S
OXFORD         MOCLDY    45  41  87 SE8G16    29.97F FOG
TUNICA         RAIN      48  46  93 S14       29.92F
$$

MSZ003>006-009-014>017-022>024-029>033-037>039-011300-
NORTHEAST MISSISSIPPI

CITY           SKY/WX    TMP DP  RH WIND       PRES   REMARKS
COLUMBUS AFB   LGT RAIN  47  39  73 SE10      30.06S
6HR MIN TEMP:  41; 6HR MAX TEMP:  49; 6HR PCP: TRACE;

GOLDN TRIANGLE LGT RAIN  45  37  76 SE12      30.06F
STARKVILLE     RAIN      43  41  93 S7        30.06F
TUPELO         LGT RAIN  47  39  74 S13       30.03F
6HR MIN TEMP:  47; 6HR MAX TEMP:  50; 6HR PCP: TRACE;

$$

MSZ040-058-011300-
CENTRAL MISSISSIPPI

CITY           SKY/WX    TMP DP  RH WIND       PRES   REMARKS
JACKSON INTL   RAIN      51  49  92 SE9       30.02S FOG
6HR MIN TEMP:  51; 6HR MAX TEMP:  52; 6HR PCP:  0.14;

JACKSON HAWKNS LGT RAIN  51  49  92 SE10      30.00F
6HR MIN TEMP:  50; 6HR MAX TEMP:  53; 6HR PCP:  0.14;

MERIDIAN KEY   LGT RAIN  49  46  90 S6        30.07S
6HR MIN TEMP:  42; 6HR MAX TEMP:  51; 6HR PCP:  0.01;

MERIDIAN NAS   LGT RAIN  45  39  79 E3        30.09S
6HR MIN TEMP:  43; 6HR MAX TEMP:  46; 6HR PCP: TRACE;

RAYMOND        FAIR      50  46  87 SE9G16    29.99F
VICKSBURG      LGT RAIN  53  50  89 S8        29.99R
6HR MIN TEMP:  51; 6HR MAX TEMP:  53; 6HR PCP:  0.08;

$$

MSZ059>079-011300-
SOUTH MISSISSIPPI

CITY           SKY/WX    TMP DP  RH WIND       PRES   REMARKS
BROOKHAVEN     LGT RAIN  55  52  88 SE6       30.01F
HATTIESBURG    CLOUDY    51  47  86 E5        30.05F
6HR MIN TEMP:  43; 6HR MAX TEMP:  51; 6HR PCP: TRACE;

MCCOMB         CLOUDY    56  53  90 S8        30.01R
6HR MIN TEMP:  50; 6HR MAX TEMP:  56; 6HR PCP: TRACE;

NATCHEZ        CLOUDY    55  52  88 SE12      29.98F
6HR MIN TEMP:  54; 6HR MAX TEMP:  55;

PINE BELT      CLOUDY    52  46  82 SE7       30.05S
6HR MIN TEMP:  48; 6HR MAX TEMP:  52;

$$

MSZ080>082-011300-
COASTAL MISSISSIPPI

CITY           SKY/WX    TMP DP  RH WIND       PRES   REMARKS
BILOXI         CLOUDY    61  56  84 SE10      30.05R
6HR MIN TEMP:  49; 6HR MAX TEMP:  61;

PASCAGOULA     CLOUDY    51  51 100 CALM      30.06S
6HR MIN TEMP:  41; 6HR MAX TEMP:  52;

GULFPORT       CLOUDY    59  55  87 E5        30.05R
6HR MIN TEMP:  50; 6HR MAX TEMP:  59;

$$



USA.gov is the U.S. government's official web portal to all federal, state and local government web resources and services.